ONEWEB-0062, 45163

Orbit data source: Space-Track

ONEWEB-0062, 45163 is a payload satellite owned by One Web (UK) in LEO that was launched on Thu, 06 Feb 2020 UTC via a SOYUZ-2-1B launch vehicle from the Tyuratam Missile And Space Complex (TTMTR). Payload-class satellites include a variety of spacecraft equipped with specific instruments for various scientific and technological missions. These include communications satellites like Starlink; space stations such as the ISS; scientific satellites like the Hubble; Earth observation satellites from companies like Planet Labs, Umbra, and HawkEye 360; GPS; miniature CubeSats for education and research; and military/defense satellites.

Loading next visibility...
Identifier
45163, 2020-008AJ
Orbit
LEO
Last TLE update
14 hours ago
Origin
Manufacturer
One Web
Mission
Operational Commercial Communications
Bus & Motor
ARROW, Unknown motor
Mass
148 kg wet, ~140 kg dry
Launch date (UTC)
2020-02-06 (5 years ago)
Launch vehicle
SOYUZ-2-1B
Launch site
Tyuratam Missile And Space Complex (TTMTR)
Object type
Payload
Rocket body
Debris
Shape & HBR
Trap Box + 2 Pan, 5 m
Radar Cross Section
2.957 m², Large (>1 m²)

Expand to show TLE details & history

TLE from 14 hours ago
0 ONEWEB-0062
1 45163U 20008AJ  25181.83573171  .00000110  00000-0  27844-3 0  9991
2 45163  87.8831 106.3346 0002350  73.6053 286.5332 13.10376847262170
Epoch: 2025-06-30T20:03Z
TLE epoch observation values (Epoch: 2025-06-30T20:03:27.219Z)
Latitude
-0.00009°
Longitude
-113.66865°
Altitude
1,224.081 km
Speed
7.243 km/s
True Right ascension
07h 05m 20s
True Declination
0° 00' 00"
Sunlit
Object was in daylight at epoch
Visualization orbit readout
Latitude
-16.11775°
Longitude
66.82564°
Altitude
1,229.067 km
Speed
7.239 km/s
Apparent Right ascension
16h 24m 29s
Apparent Declination
-54° 25' 28"
Sunlit
Object is in full shadow
Visualization observer readout
Local Sidereal Time
21:31:17
Azimuth
218.581° SW
Elevation
-24.786°
Doppler factor
1
Orbital elements
Apogee altitude
1,220.607 km
Perigee altitude
1,217.036 km
Semi-major axis
7,596.958 km
Eccentricity
0.00024
Inclination
87.8831°
RAAN
106.3346°
Arg. of periapsis
73.6053°
True anomaly
Unknown
Mean anomaly
286.5332°
Eccentric anomaly
Unknown
Mean motion
3.27781 °/min
Orbital period
109.83 mins
BSTAR
0.00027844
Loading maneuver chart data...
Loading SW <> Apogee altitude chart data...
Loading historical data...
Loading historical data...
Loading historical data...
Loading historical data...
Loading historical data...
Loading historical data...
Loading historical data...

ONEWEB-0062 Visibility forecast

Observer location: undefined°, undefined°

Span
Click to sort rows by Start time (UTC) header in descending order
Start Az.
Max El. time (UTC)
Max El. Az.
Max El.
End time (UTC)
End Az.
11 mins2025-07-01 18:09:55.748Z129.535° SE2025-07-01 18:15:55.748Z72.71° E24.325°2025-07-01 18:20:55.748Z26.316° NE
12 mins2025-07-01 19:59:55.748Z204.296° SW2025-07-01 20:04:55.748Z269.865° W38.987°2025-07-01 20:11:55.748Z350.792° N
9 mins2025-07-02 05:40:55.748Z38.613° NE2025-07-02 05:44:55.748Z77.966° E20.172°2025-07-02 05:49:55.748Z122.131° SE
12 mins2025-07-02 07:29:55.748Z350.829° N2025-07-02 07:34:55.748Z289.863° WNW42.441°2025-07-02 07:41:55.748Z194.269° SSW
|